Location: Bacharowice
(49.9333°N, 19.5833°E)
Time: 12:58:08
(UTC+00:00)

USA 305 - Pass Details

Date: 20 September 2021
Orbit: 547 x 588 km, 54.0° (Epoch: 03 October)

Event Time Altitude Azimuth Distance (km) Brightness Sun altitude
Rises 18:46:54 0° 281° (W) 2,745 7.8 -19.9°
Reaches altitude 10° 18:49:12 10° 287° (WNW) 1,856 6.7 -20.2°
Maximum altitude 18:53:17 48° 2° (N) 751 3.6 -20.8°
Enters shadow 18:54:34 36° 50° (NE) 920 3.7 -21.0°
